Temp
19 19 18 18 21 22 24 24 25 24 24 23 23 23 22 19 21 22 17 18 18 18 17 17 18 18 18 18 18 18 18 18 18 17 18 18 18 18 18 18 18 19 19 19 19 19 19 18 18
19 19 18 18 22 25 24 25 25 25 23 22 21 21 21 19 17 16 17 18 18 18 17 18 18 18 18 17 17 18 18 17 17 17 17 18 18 17 17 18 18 18 18 19 19 19 19 18 19
18 18 19 21 23 25 25 25 24 23 23 23 21 20 20 18 16 16 18 18 18 18 17 18 17 18 18 18 18 18 17 17 17 17 17 17 17 18 18 18 18 18 18 18 17 18 18 18 18
18 18 18 22 25 25 25 24 24 24 23 22 21 21 18 17 17 18 19 18 18 17 17 17 17 18 18 18 17 18 18 18 18 17 18 17 17 17 18 18 18 18 18 18 17 18 18 18 18
19 18 22 24 25 25 24 23 24 24 23 22 21 20 18 17 18 19 19 18 17 17 17 17 17 18 18 17 17 17 18 17 17 17 17 17 17 17 17 18 18 18 17 16 18 18 18 18 18
19 19 22 24 24 24 22 23 23 22 21 20 20 20 17 17 19 19 18 18 16 16 17 17 17 17 18 18 17 18 17 17 17 17 18 17 17 17 18 18 18 18 18 18 18 18 17 18 18
21 22 22 24 24 23 23 22 23 22 21 21 19 21 16 16 18 19 18 18 16 17 17 17 18 17 18 18 18 18 17 17 18 18 18 17 17 17 18 18 18 18 18 18 18 18 18 18 18
19 20 23 23 24 22 23 23 22 22 21 20 20 20 17 16 18 18 17 17 17 17 17 18 18 17 18 18 18 18 18 18 18 18 18 17 17 17 17 17 18 18 18 18 18 18 18 18 18
19 22 23 23 24 22 23 24 22 21 21 21 20 20 18 16 16 16 16 17 18 17 17 18 18 18 18 18 18 18 18 18 18 17 18 17 17 17 17 17 18 18 19 19 19 19 19 18 18
21 21 23 23 23 22 20 23 23 22 21 19 18 18 17 16 16 17 16 17 18 16 18 19 19 18 18 18 18 18 18 18 18 18 18 18 17 17 17 17 18 18 19 19 19 19 19 18 18
21 22 24 22 23 22 22 22 21 23 21 20 19 18 17 17 17 17 17 18 19 18 18 19 19 18 18 18 18 18 18 18 18 18 19 19 18 18 17 17 17 18 19 19 19 19 19 19 19
24 24 24 23 22 21 21 21 20 22 20 20 19 18 17 17 17 17 17 19 19 19 19 19 18 18 18 18 18 18 18 18 19 19 19 19 18 18 18 18 18 19 19 19 19 19 19 19 19
24 24 23 22 22 20 20 22 21 20 20 19 18 18 18 18 18 18 18 19 19 19 19 19 19 18 18 19 18 18 19 19 19 19 19 19 19 19 19 19 19 19 19 19 19 19 20 19 19
24 23 22 22 21 21 21 20 20 19 19 19 18 19 19 18 18 19 19 19 20 19 19 18 18 18 18 19 19 19 19 19 19 19 19 19 19 19 19 19 19 19 19 19 20 20 20 20 19
23 23 23 22 22 22 21 21 20 19 19 19 19 19 19 18 18 20 19 20 20 20 19 18 18 18 19 19 19 19 19 19 19 19 19 19 19 20 19 19 19 19 19 20 20 20 20 20 20
25 24 25 23 22 21 22 24 21 19 20 20 19 19 19 19 19 19 20 20 20 19 19 19 18 18 19 19 19 19 19 19 19 19 20 20 20 20 20 20 20 20 19 19 20 19 19 20 20
25 25 24 23 23 22 22 23 21 19 20 20 20 20 19 19 19 20 20 20 20 20 19 19 19 19 19 19 19 19 19 19 19 19 20 20 20 20 20 20 20 20 20 20 20 20 20 20 20
26 25 25 25 24 22 22 23 22 20 20 21 21 20 20 20 20 20 20 20 20 19 20 19 19 19 19 19 19 19 19 20 20 20 20 20 20 20 20 20 20 20 20 20 20 20 20 20 21
26 26 26 25 23 23 23 23 23 21 20 21 21 21 21 21 20 20 20 20 20 20 20 20 20 20 19 19 19 19 19 20 20 20 20 20 20 20 20 20 20 20 20 20 21 21 21 21 21
26 26 26 23 22 23 24 24 24 22 21 21 21 22 21 21 21 20 21 20 21 20 20 20 20 20 20 20 19 20 20 20 20 20 20 20 20 20 20 20 20 20 20 21 21 21 21 21 21
26 26 26 26 23 23 23 25 22 22 21 21 21 22 22 22 21 20 21 21 21 21 21 20 20 20 20 20 20 20 20 20 20 20 20 20 20 20 20 20 20 20 20 21 21 21 21 21 21
26 26 27 25 25 26 23 26 24 24 22 22 21 22 22 22 22 21 22 21 21 22 21 21 21 20 20 20 20 20 20 20 20 20 20 20 20 20 20 20 20 20 21 21 21 21 21 21 21
27 27 27 25 25 25 24 25 27 24 24 23 23 22 22 23 22 22 22 22 22 22 22 21 21 20 20 20 21 21 20 20 21 20 20 20 20 20 20 20 20 20 21 21 21 21 21 21 21
27 26 24 24 26 26 26 26 28 25 25 26 24 23 22 23 23 22 22 23 23 22 22 22 21 21 20 20 20 21 21 20 20 21 20 20 20 20 20 20 20 20 20 20 21 21 21 21 21
26 26 25 24 25 26 24 24 28 28 27 27 26 24 23 23 23 22 22 23 23 23 23 22 21 21 20 20 21 21 21 21 21 21 21 20 20 20 20 20 20 20 20 20 21 21 21 21 22
25 26 25 23 24 26 23 26 28 28 28 27 26 26 25 24 23 23 22 24 24 23 23 23 22 21 21 21 21 21 21 21 21 21 21 20 21 20 19 19 20 20 20 20 21 21 21 22 22
24 24 27 25 22 25 27 26 27 29 27 27 27 26 25 24 24 23 22 23 24 24 24 23 22 22 21 21 21 21 21 21 21 21 21 21 21 20 20 19 20 20 20 20 21 21 21 21 22
25 26 24 24 24 24 26 25 28 29 29 27 27 26 25 24 24 23 23 23 24 24 24 24 23 23 22 22 22 21 21 21 21 21 21 21 21 21 20 20 20 20 20 20 20 20 21 21 21
23 24 24 26 25 25 25 27 28 28 27 26 27 25 25 24 24 23 23 25 25 24 24 24 24 23 22 22 22 22 21 21 21 21 21 21 21 21 21 21 21 21 21 21 20 20 21 21 21
26 25 25 24 22 24 26 28 26 24 25 24 26 24 24 23 24 23 22 22 23 24 24 25 24 24 23 23 23 22 21 21 21 21 21 21 21 21 21 21 21 21 21 21 21 21 21 21 21
Height
1511 1513 1515 1516 1519 1514 1514 1514 1509 1516 1519 1521 1525 1526 1528 1532 1531 1538 1540 1543 1545 1547 1549 1551 1553 1554 1556 1557 1558 1558 1560 1562 1563 1564 1564 1565 1566 1567 1569 1570 1571 1572 1573 1573 1574 1575 1576 1577 1577
1512 1514 1515 1514 1514 1515 1518 1509 1512 1513 1518 1521 1525 1527 1529 1535 1535 1538 1541 1544 1546 1548 1550 1552 1554 1555 1557 1558 1560 1561 1562 1563 1564 1565 1566 1567 1568 1569 1570 1572 1573 1574 1575 1576 1577 1578 1579 1579 1580
1513 1513 1515 1512 1510 1514 1514 1511 1512 1517 1520 1521 1525 1529 1532 1536 1537 1540 1542 1545 1548 1550 1552 1555 1557 1558 1560 1561 1562 1564 1563 1566 1567 1567 1568 1570 1570 1571 1572 1574 1575 1576 1577 1578 1579 1580 1581 1582 1583
1514 1515 1516 1511 1510 1509 1510 1514 1516 1517 1522 1522 1525 1530 1536 1538 1539 1541 1543 1546 1549 1552 1555 1557 1558 1560 1561 1562 1564 1565 1567 1568 1568 1570 1570 1572 1573 1573 1575 1576 1577 1578 1578 1579 1581 1582 1583 1584 1585
1514 1515 1512 1510 1511 1511 1515 1518 1519 1520 1522 1525 1526 1533 1537 1541 1541 1543 1545 1549 1552 1554 1557 1559 1561 1562 1562 1564 1565 1567 1568 1569 1570 1572 1573 1574 1575 1576 1578 1578 1579 1579 1581 1582 1583 1585 1587 1588 1588
1515 1515 1518 1516 1516 1516 1519 1520 1521 1522 1526 1529 1531 1532 1539 1541 1543 1545 1547 1551 1554 1556 1559 1561 1563 1564 1565 1566 1567 1569 1570 1572 1573 1574 1575 1576 1577 1578 1579 1580 1581 1582 1583 1585 1586 1588 1589 1590 1591
1513 1513 1519 1514 1517 1518 1520 1522 1522 1525 1528 1530 1533 1534 1541 1543 1544 1546 1549 1552 1555 1557 1560 1562 1564 1566 1567 1568 1569 1570 1572 1573 1574 1576 1577 1578 1578 1579 1580 1581 1583 1584 1586 1587 1588 1590 1592 1593 1593
1514 1515 1516 1517 1517 1524 1523 1523 1525 1526 1529 1531 1533 1536 1540 1542 1544 1548 1550 1553 1557 1559 1561 1563 1565 1567 1568 1570 1571 1573 1574 1575 1576 1577 1578 1580 1580 1580 1581 1582 1584 1586 1588 1589 1591 1592 1594 1594 1595
1515 1516 1521 1519 1515 1523 1523 1523 1525 1527 1529 1532 1533 1535 1539 1542 1546 1549 1551 1554 1557 1560 1562 1564 1566 1568 1570 1571 1573 1575 1576 1577 1577 1578 1579 1580 1580 1581 1582 1582 1584 1586 1589 1591 1593 1594 1595 1596 1597
1514 1519 1517 1515 1516 1520 1522 1524 1526 1527 1530 1533 1533 1536 1540 1544 1547 1549 1552 1553 1557 1561 1563 1565 1568 1569 1572 1573 1574 1576 1577 1578 1579 1580 1581 1582 1582 1582 1583 1583 1585 1587 1590 1592 1595 1596 1598 1599 1600
1515 1516 1513 1517 1518 1520 1521 1523 1525 1526 1529 1530 1532 1536 1541 1544 1549 1551 1554 1555 1558 1561 1564 1567 1569 1571 1573 1575 1576 1577 1579 1580 1581 1582 1583 1583 1583 1584 1584 1584 1586 1588 1592 1595 1596 1598 1600 1602 1603
1513 1512 1513 1517 1521 1522 1524 1526 1527 1527 1528 1531 1535 1538 1543 1545 1549 1551 1554 1556 1559 1561 1564 1567 1570 1572 1574 1576 1578 1579 1580 1581 1582 1584 1585 1585 1585 1586 1587 1587 1588 1590 1594 1596 1598 1601 1602 1604 1605
1513 1514 1516 1519 1521 1523 1525 1527 1525 1529 1528 1533 1536 1540 1543 1546 1549 1552 1555 1558 1561 1563 1565 1568 1570 1572 1575 1577 1579 1580 1582 1583 1584 1585 1586 1587 1588 1589 1589 1590 1592 1594 1597 1599 1601 1603 1605 1606 1607
1514 1516 1518 1520 1522 1524 1525 1528 1528 1531 1530 1533 1537 1541 1544 1547 1549 1552 1555 1558 1560 1564 1567 1569 1572 1573 1575 1578 1580 1582 1583 1585 1585 1586 1588 1589 1590 1591 1593 1594 1596 1598 1600 1602 1604 1606 1607 1608 1610
1515 1517 1518 1522 1523 1523 1524 1526 1528 1529 1531 1534 1538 1542 1544 1548 1549 1552 1555 1557 1560 1563 1568 1571 1573 1575 1576 1578 1580 1582 1584 1586 1587 1587 1589 1590 1591 1593 1595 1597 1599 1601 1603 1605 1607 1608 1609 1611 1612
1514 1517 1519 1520 1521 1523 1524 1522 1525 1528 1530 1534 1538 1541 1544 1547 1549 1552 1556 1559 1561 1564 1567 1571 1574 1576 1577 1579 1582 1584 1585 1587 1588 1589 1591 1592 1593 1595 1597 1599 1601 1603 1605 1607 1608 1610 1611 1612 1612
1515 1519 1520 1521 1520 1521 1523 1522 1523 1527 1530 1532 1536 1540 1543 1546 1549 1552 1555 1559 1562 1565 1568 1570 1574 1577 1579 1580 1582 1585 1586 1588 1590 1591 1592 1594 1595 1597 1599 1601 1603 1605 1607 1608 1609 1610 1612 1613 1613
1515 1516 1516 1517 1517 1520 1522 1520 1521 1525 1528 1529 1533 1537 1541 1545 1546 1550 1554 1559 1563 1565 1569 1572 1574 1577 1579 1581 1583 1586 1588 1589 1591 1593 1594 1596 1597 1598 1600 1603 1604 1606 1608 1609 1610 1612 1613 1613 1614
1506 1508 1512 1513 1516 1519 1518 1517 1516 1521 1526 1527 1529 1533 1537 1540 1545 1549 1553 1556 1561 1565 1567 1571 1574 1576 1579 1581 1583 1586 1588 1590 1592 1594 1596 1597 1598 1600 1602 1604 1605 1607 1608 1610 1611 1612 1613 1614 1614
1506 1509 1512 1515 1515 1518 1515 1512 1512 1516 1519 1523 1526 1528 1532 1537 1542 1545 1550 1554 1558 1562 1565 1569 1573 1575 1578 1581 1584 1586 1588 1591 1593 1595 1597 1598 1599 1601 1603 1604 1606 1607 1609 1610 1611 1613 1613 1613 1614
1504 1507 1509 1511 1515 1514 1515 1509 1512 1512 1517 1522 1524 1526 1530 1532 1536 1541 1545 1550 1555 1558 1562 1566 1570 1574 1577 1580 1583 1586 1588 1591 1593 1595 1597 1598 1600 1601 1603 1604 1605 1607 1608 1610 1611 1612 1612 1613 1614
1504 1501 1503 1509 1512 1515 1513 1514 1506 1504 1511 1515 1517 1521 1525 1528 1533 1537 1540 1546 1550 1554 1560 1564 1568 1571 1575 1579 1581 1584 1587 1589 1592 1595 1596 1598 1600 1601 1603 1604 1606 1606 1606 1607 1609 1610 1611 1612 1613
1499 1497 1501 1506 1511 1513 1515 1517 1495 1501 1505 1505 1507 1512 1517 1522 1526 1531 1535 1540 1546 1551 1555 1560 1564 1568 1572 1575 1579 1582 1585 1589 1592 1593 1595 1597 1599 1600 1601 1603 1604 1605 1605 1606 1607 1608 1610 1611 1611
1494 1499 1507 1509 1507 1517 1506 1508 1491 1496 1490 1492 1500 1506 1511 1516 1521 1525 1529 1535 1540 1546 1551 1556 1559 1563 1568 1572 1576 1580 1583 1587 1590 1592 1594 1596 1598 1599 1600 1601 1602 1603 1604 1604 1605 1607 1608 1609 1610
1492 1499 1518 1524 1522 1519 1510 1513 1488 1479 1480 1482 1487 1493 1501 1508 1515 1520 1523 1528 1534 1539 1545 1551 1556 1559 1563 1568 1573 1577 1580 1584 1587 1590 1593 1595 1596 1597 1598 1599 1601 1602 1603 1603 1604 1605 1606 1607 1608
1492 1492 1507 1530 1523 1511 1511 1505 1484 1474 1475 1478 1482 1487 1494 1500 1506 1513 1516 1520 1526 1533 1539 1546 1551 1556 1559 1563 1568 1573 1577 1580 1583 1587 1590 1591 1593 1595 1597 1598 1599 1600 1601 1602 1602 1603 1604 1604 1605
1492 1497 1488 1504 1516 1511 1496 1489 1477 1470 1474 1476 1478 1482 1486 1490 1497 1503 1510 1515 1520 1527 1532 1540 1546 1551 1555 1559 1563 1568 1573 1576 1579 1583 1586 1589 1591 1592 1594 1596 1598 1598 1599 1600 1601 1601 1602 1603 1603
1482 1484 1502 1499 1516 1519 1499 1502 1484 1470 1471 1472 1473 1475 1478 1482 1489 1495 1502 1509 1515 1521 1527 1534 1539 1544 1550 1555 1558 1563 1568 1573 1576 1580 1583 1586 1588 1590 1592 1593 1595 1596 1597 1599 1599 1600 1600 1601 1601
1486 1486 1488 1485 1495 1502 1505 1487 1470 1469 1471 1469 1468 1468 1473 1478 1485 1491 1495 1501 1509 1515 1520 1526 1533 1539 1544 1549 1553 1557 1562 1567 1572 1575 1579 1582 1585 1587 1588 1590 1592 1594 1595 1596 1597 1598 1598 1598 1599
1469 1474 1477 1488 1503 1493 1485 1476 1467 1470 1470 1468 1467 1468 1472 1478 1481 1487 1493 1500 1505 1510 1515 1519 1525 1532 1537 1543 1548 1552 1557 1562 1566 1570 1574 1578 1581 1583 1585 1587 1588 1590 1592 1593 1593 1594 1594 1595 1595
Wind_Speed
12 9 6 2 2 1 4 4 6 14 10 5 17 3 5 8 2 4 18 15 17 17 16 14 12 12 12 12 13 12 11 10 10 10 11 13 13 12 13 12 12 12 11 13 13 13 14 15 14
12 7 2 1 1 4 4 3 14 9 10 21 13 11 5 5 4 16 16 20 16 16 15 14 14 13 12 13 12 11 11 11 12 12 13 12 13 13 13 12 12 12 12 12 12 13 13 12 12
8 4 1 1 1 4 5 6 11 16 18 12 7 9 4 4 12 18 19 20 17 16 16 14 13 12 12 12 13 12 11 12 13 14 13 13 12 14 14 14 13 12 13 13 12 11 12 12 11
3 1 0 1 9 5 6 14 16 16 11 5 15 10 6 5 13 14 22 19 16 15 15 13 13 12 13 13 13 13 13 13 14 14 12 13 13 13 14 14 14 13 12 12 11 12 13 12 11
2 1 1 3 9 10 13 11 5 4 6 8 3 7 12 7 10 21 20 18 16 15 16 14 13 13 13 13 13 14 14 13 13 12 12 11 12 11 10 12 12 12 12 11 12 14 14 15 14
1 0 2 4 13 11 7 8 5 7 8 10 14 14 5 9 18 20 18 17 14 15 15 14 13 12 11 12 13 13 14 13 12 12 11 10 10 10 10 10 11 11 11 12 14 16 15 13 14
0 1 2 8 12 7 4 5 6 7 10 7 14 8 8 14 20 20 18 16 15 16 15 14 13 13 12 12 13 14 13 12 11 10 9 8 8 8 8 8 9 10 11 12 15 15 13 11 10
1 1 2 4 4 5 4 5 8 6 8 13 8 7 9 18 21 20 18 17 15 15 15 15 15 12 14 14 13 13 12 12 10 9 8 9 8 6 8 8 9 11 12 13 14 13 11 11 11
1 1 3 2 4 7 8 5 5 8 13 3 2 14 17 23 21 19 19 17 16 16 14 14 15 15 13 14 13 12 11 11 12 11 12 8 6 7 6 9 11 13 14 14 15 14 13 14 13
1 2 2 2 8 9 6 4 10 8 5 7 16 18 24 23 21 20 20 20 18 14 16 16 15 15 14 13 13 12 12 10 11 11 12 9 9 9 8 10 11 14 17 15 14 13 13 13 12
2 2 5 4 12 15 11 6 3 13 4 7 25 26 24 22 19 18 18 18 19 17 17 17 17 15 14 12 12 13 12 10 10 11 12 11 12 14 12 12 12 16 19 16 14 14 13 12 13
2 5 1 8 9 8 6 11 9 6 4 11 24 26 23 21 18 17 18 20 20 20 18 19 17 14 13 12 13 12 9 10 10 10 11 10 10 11 14 15 16 19 19 16 15 14 14 13 11
5 2 3 8 9 10 8 7 6 6 10 21 24 23 22 19 17 15 16 18 19 20 20 18 16 14 13 13 14 9 10 10 10 9 9 10 9 12 13 15 18 18 17 15 15 13 13 10 8
5 8 9 8 8 8 7 4 2 4 12 21 26 23 21 18 18 16 17 19 20 20 19 18 16 15 14 16 14 11 8 6 7 9 9 11 8 9 13 15 16 16 16 15 14 12 9 7 5
11 8 6 6 5 4 7 4 5 12 16 20 24 22 21 19 17 18 16 20 21 21 20 18 17 15 16 15 14 10 10 9 10 9 9 9 10 12 13 13 13 13 14 13 11 9 6 4 2
3 3 3 5 6 3 3 1 8 16 18 18 21 21 21 20 20 18 17 19 22 22 22 18 16 16 16 16 13 11 12 10 9 10 11 9 10 12 12 11 11 11 9 9 8 6 4 1 1
2 3 4 3 9 4 9 1 5 16 17 16 19 21 21 21 19 20 22 21 21 22 20 18 17 16 16 15 12 11 13 12 10 9 10 9 11 12 12 12 12 10 9 9 8 6 5 3 2
5 4 3 3 7 9 8 9 3 15 18 18 20 21 22 22 23 22 24 23 22 21 20 18 18 17 17 16 12 12 13 15 13 11 11 9 10 11 11 12 12 11 9 7 7 6 5 3 2
6 6 2 1 3 8 11 10 11 15 19 21 22 22 25 24 22 21 23 25 25 24 22 19 21 19 18 15 13 12 13 16 12 10 11 8 11 9 9 11 12 9 8 7 6 6 5 3 3
7 5 3 2 4 6 4 11 10 17 22 23 23 25 24 25 23 23 25 27 27 26 25 23 21 21 19 15 13 13 15 16 13 11 10 11 12 10 8 9 10 11 10 9 7 6 5 4 3
8 9 5 1 5 5 4 6 9 11 18 20 23 24 25 26 26 27 29 29 27 29 28 26 24 22 20 20 16 14 12 15 14 12 11 11 11 8 7 8 10 12 13 12 11 9 6 6 7
14 9 5 6 4 3 3 3 6 13 16 21 27 27 29 28 28 28 33 34 33 29 29 27 26 24 21 24 21 16 13 16 15 12 11 11 9 7 9 7 6 6 12 15 15 12 9 10 11
11 9 7 5 3 3 4 4 1 9 16 21 30 31 32 33 30 31 34 35 34 33 31 29 28 25 24 27 26 20 16 16 14 11 10 12 11 10 10 10 7 6 4 11 14 12 11 13 12
9 7 6 4 2 9 4 7 5 7 15 20 27 32 32 32 32 32 34 35 34 34 34 32 30 29 27 30 28 26 19 18 18 17 13 11 11 13 11 10 8 7 5 6 11 13 14 14 12
10 12 8 7 6 10 2 5 12 7 9 15 27 37 36 34 32 32 32 37 37 38 37 35 33 31 29 32 32 29 24 19 18 20 16 13 11 14 12 10 9 8 6 5 7 10 12 12 11
16 16 9 12 10 11 2 7 3 3 9 10 19 31 34 36 35 34 35 40 39 38 37 38 35 32 32 31 34 30 26 23 20 21 17 14 11 10 11 10 10 7 8 7 6 8 10 11 12
9 11 11 6 1 6 4 5 11 8 4 9 14 18 29 35 36 36 34 37 39 38 38 39 38 35 33 29 33 34 27 27 23 22 20 16 13 11 10 11 9 9 8 7 7 8 9 9 9
10 12 10 7 15 15 9 6 8 7 4 3 8 21 27 34 36 34 36 37 39 38 36 39 39 36 34 32 30 34 35 29 27 24 21 19 15 13 11 10 11 9 7 7 7 8 9 9 9
8 9 7 10 8 14 11 9 5 9 7 10 9 15 23 29 34 33 34 39 40 37 37 39 41 39 39 36 29 30 31 33 31 28 25 21 19 16 14 12 12 12 10 9 11 10 11 11 11
18 19 18 11 12 8 11 16 3 5 6 6 5 6 15 22 29 31 29 30 35 37 39 38 41 43 41 36 32 28 30 31 34 32 26 21 23 19 19 17 16 16 14 12 13 14 14 14 14
Wind_Direction
140 138 132 43 205 274 84 89 114 129 144 163 150 163 101 51 38 96 140 148 149 144 138 141 140 141 140 143 150 140 144 144 143 133 130 125 129 125 125 123 125 125 120 110 105 100 99 99 100
135 129 77 10 194 109 92 132 137 143 129 131 108 113 70 76 78 134 142 147 148 147 143 142 140 137 139 138 144 140 136 132 130 130 122 118 122 125 123 126 128 125 123 119 113 108 106 107 102
130 131 152 256 90 79 116 139 128 120 134 144 110 85 77 89 125 136 149 144 149 146 140 138 137 136 132 129 134 133 130 128 126 125 124 120 116 114 117 117 121 127 129 129 121 119 108 101 99
113 57 358 231 91 64 117 124 123 129 115 81 119 79 81 120 131 143 146 145 151 142 139 138 136 136 137 136 129 130 128 127 126 127 124 121 120 117 115 115 117 122 128 133 123 123 112 101 95
78 89 255 99 67 99 105 121 79 74 96 109 96 107 113 144 148 145 145 147 152 141 133 141 138 142 137 135 137 133 131 131 128 126 124 121 119 115 119 122 123 124 118 112 124 121 116 109 102
120 87 28 85 103 105 70 57 68 90 99 104 106 116 110 144 148 148 147 149 147 141 138 136 143 138 146 147 142 138 133 128 128 130 133 133 128 127 128 133 133 129 126 116 118 120 115 108 102
71 125 58 103 127 109 84 57 80 97 116 108 132 107 133 146 154 152 150 150 149 145 139 144 149 147 145 141 145 141 138 132 131 132 133 132 132 139 141 140 141 135 128 122 126 124 116 107 110
189 252 68 56 150 86 89 107 86 108 93 124 130 156 161 162 156 155 155 152 154 150 149 152 146 150 142 140 141 138 138 135 129 125 117 106 113 127 144 147 147 153 145 133 134 129 120 111 107
141 99 89 91 141 101 126 129 70 108 123 96 133 152 153 153 153 155 157 155 160 156 153 152 148 145 145 141 139 135 132 133 131 125 114 118 111 123 133 150 154 154 154 141 140 138 120 109 100
202 53 100 163 129 126 125 124 123 141 114 84 109 129 147 152 157 164 165 159 160 163 157 156 153 148 148 145 141 137 133 134 129 123 119 119 103 103 126 135 150 156 155 151 143 133 117 103 91
176 239 133 139 128 124 126 107 142 151 80 158 147 147 154 156 165 172 169 165 158 163 161 159 157 152 149 146 139 133 130 129 127 125 122 113 100 90 98 122 141 153 152 147 140 128 117 103 97
231 249 177 148 145 129 118 130 125 137 150 151 152 153 158 161 170 176 175 167 165 165 164 163 162 159 156 150 144 138 134 131 130 133 126 120 105 93 88 102 124 143 146 140 136 129 121 109 96
217 122 101 143 143 115 121 118 128 118 138 150 155 160 165 169 168 175 176 171 173 169 165 168 166 165 165 160 150 144 136 130 133 135 131 128 112 104 102 104 116 134 141 138 137 130 126 116 107
161 135 112 108 139 145 146 151 79 176 152 156 163 170 172 180 170 169 175 175 174 170 168 166 161 161 163 157 151 148 146 136 162 153 146 132 133 130 123 115 119 128 134 137 137 135 138 132 107
125 117 107 130 158 166 157 161 209 160 159 162 171 176 180 187 181 177 176 176 170 168 168 168 161 163 163 163 158 159 150 137 132 147 151 146 155 151 146 134 129 129 131 137 141 141 140 127 72
106 123 192 157 182 160 203 256 158 167 162 172 179 183 187 193 192 185 177 174 174 172 168 171 172 165 162 162 160 154 150 151 140 145 150 138 147 161 161 162 158 155 155 160 164 169 164 132 74
179 168 214 175 206 167 212 251 144 169 178 179 187 191 194 197 199 197 188 178 176 171 175 175 173 171 167 168 167 168 162 156 148 147 154 145 151 149 151 156 157 158 163 171 170 166 156 163 144
179 189 186 233 195 208 209 232 165 188 189 192 193 197 198 202 203 198 194 188 187 177 177 177 173 172 167 167 166 171 172 165 156 151 157 148 152 156 159 158 156 155 159 174 180 178 189 207 241
160 151 206 168 182 205 224 243 232 198 202 196 198 199 201 203 207 205 200 193 194 191 189 190 183 182 182 182 178 182 181 174 163 156 161 184 181 169 175 184 182 170 172 175 190 201 210 229 279
192 180 190 127 173 222 236 252 229 205 207 205 195 201 207 206 206 208 209 204 200 199 193 193 190 191 196 192 181 178 182 184 175 168 165 152 161 168 177 187 198 207 201 194 193 197 216 241 282
209 212 175 329 168 233 279 254 188 209 211 208 213 210 212 211 207 209 212 210 208 205 203 198 193 196 199 193 192 186 186 188 191 187 179 168 171 175 182 198 206 219 222 216 213 211 224 259 287
220 185 175 149 200 323 222 304 216 195 201 210 214 211 209 213 213 210 215 216 213 211 210 208 201 202 202 198 197 203 193 192 195 202 200 195 197 199 193 200 212 217 218 220 218 220 235 260 285
221 171 197 157 186 275 196 260 189 191 207 210 212 213 213 210 210 212 217 219 220 217 216 214 211 206 207 202 205 200 201 201 202 200 209 220 220 209 205 216 235 224 212 210 219 228 242 259 272
161 122 87 88 187 259 242 237 250 194 219 213 210 211 215 212 213 213 215 219 221 222 218 219 213 210 209 205 207 205 202 205 212 215 215 222 222 215 213 224 235 224 223 233 232 239 249 259 274
190 190 218 227 219 239 69 229 259 240 229 214 202 207 208 211 213 213 210 217 220 220 220 219 214 212 209 204 209 211 208 209 219 216 219 231 219 210 217 216 215 227 238 248 245 243 249 255 265
205 206 215 216 221 240 128 242 237 275 253 224 214 212 209 208 210 211 212 215 218 221 220 219 214 213 210 210 212 214 216 213 219 216 219 229 232 225 220 216 219 230 234 249 249 252 256 256 259
186 209 216 228 305 238 220 254 270 272 257 233 225 207 204 201 202 207 208 213 215 218 222 220 216 214 214 214 211 214 218 217 219 219 223 229 234 229 222 220 233 229 236 247 255 264 261 259 263
219 176 190 207 213 223 220 254 241 255 338 276 234 217 206 203 199 199 205 212 218 219 221 219 219 217 216 214 215 219 223 226 223 223 225 226 226 231 232 230 230 231 238 255 265 274 273 269 267
178 195 213 224 233 221 230 240 208 257 311 296 270 225 207 198 199 202 203 210 217 219 221 220 219 220 220 217 219 219 225 225 226 228 233 237 228 231 229 238 237 236 244 260 272 276 279 277 272
215 210 205 210 193 229 240 241 92 303 301 303 296 215 198 203 199 198 200 203 212 219 220 220 219 221 222 219 222 225 226 228 228 229 232 237 233 238 243 241 241 241 249 263 276 270 272 275 272